CW8248 Weather Reports


Display with metric or nautical units.
time (UTC)temp
F
wind
direction
speed
MPH
gust
MPH
rain 1hr
in
rain 24hr
in
rain mn
in
humidity
%
barometer
mb
20260901170518 64 242 9.0 21.0 0.00 0.00 0.00 57 1009.9
20260901170017 64 272 11.0 21.0 0.00 0.00 0.00 58 1009.9
20260901165516 64 251 9.0 19.0 0.00 0.00 0.00 58 1009.9
20260901165020 63 191 6.0 19.0 0.00 0.00 0.00 60 1010.0
20260901164515 63 263 11.0 18.0 0.00 0.00 0.00 60 1010.0
20260901164015 63 240 8.0 17.0 0.00 0.00 0.00 59 1009.8
20260901163515 63 260 7.0 18.0 0.00 0.00 0.00 61 1010.0
20260901163014 63 255 7.0 17.0 0.00 0.00 0.00 61 1010.0
20260901162512 62 191 7.0 17.0 0.00 0.00 0.00 63 1009.9
20260901162013 62 191 8.0 19.0 0.00 0.00 0.00 62 1009.9
20260901161512 62 251 7.0 19.0 0.00 0.00 0.00 62 1010.0
20260901161012 62 244 9.0 18.0 0.00 0.00 0.00 63 1010.0
20260901160510 62 191 8.0 17.0 0.00 0.00 0.00 62 1009.9
20260901160010 62 191 10.0 17.0 0.00 0.00 0.00 64 1009.9
20260901155509 62 254 6.0 18.0 0.00 0.00 0.00 63 1009.9
20260901155009 62 275 12.0 21.0 0.00 0.00 0.00 63 1009.7
20260901154515 62 275 12.0 21.0 0.00 0.00 0.00 63 1009.7
20260901154007 62 249 9.0 18.0 0.00 0.00 0.00 63 1009.8
20260901153507 61 268 8.0 18.0 0.00 0.00 0.00 63 1009.8
20260901153010 61 243 7.0 18.0 0.00 0.00 0.00 64 1009.8
20260901152504 61 279 6.0 19.0 0.00 0.00 0.00 64 1009.7
20260901152003 61 191 9.0 17.0 0.00 0.00 0.00 64 1009.7
20260901151503 60 244 10.0 19.0 0.00 0.00 0.00 65 1009.7
20260901151002 60 253 10.0 20.0 0.00 0.00 0.00 66 1009.8
20260901150500 60 233 10.0 18.0 0.00 0.00 0.00 65 1009.7
20260901150101 60 256 10.0 22.0 0.00 0.00 0.00 66 1009.7
20260901145600 60 235 11.0 22.0 0.00 0.00 0.00 65 1009.6
20260901145058 60 241 8.0 21.0 0.00 0.00 0.00 65 1009.5
20260901144557 60 227 9.0 21.0 0.00 0.00 0.00 65 1009.5
20260901144056 60 266 9.0 16.0 0.00 0.00 0.00 66 1009.4
20260901143555 60 257 9.0 19.0 0.00 0.00 0.00 66 1009.5
20260901143055 60 252 9.0 21.0 0.00 0.00 0.00 65 1009.4
20260901142552 60 252 10.0 21.0 0.00 0.00 0.00 65 1009.5
20260901142052 61 232 10.0 22.0 0.00 0.00 0.00 65 1009.4
20260901141558 61 228 9.0 16.0 0.00 0.00 0.00 65 1009.4
20260901141051 61 259 11.0 18.0 0.00 0.00 0.00 65 1009.4
20260901140549 61 247 10.0 18.0 0.00 0.00 0.00 65 1009.3
20260901140051 61 258 8.0 16.0 0.00 0.00 0.00 65 1009.1
20260901135552 61 265 6.0 15.0 0.00 0.00 0.00 65 1009.1
20260901135048 61 236 6.0 9.0 0.00 0.00 0.00 64 1009.0
20260901134547 61 265 1.0 11.0 0.00 0.00 0.00 64 1009.0
20260901134047 61 242 3.0 11.0 0.00 0.00 0.00 63 1009.0
20260901133548 61 253 0.0 8.0 0.00 0.00 0.00 64 1009.0
20260901133045 61 253 0.0 8.0 0.00 0.00 0.00 63 1009.0
20260901132544 61 240 4.0 10.0 0.00 0.00 0.00 63 1008.9
20260901132044 61 261 5.0 10.0 0.00 0.00 0.00 62 1008.7
20260901131549 61 279 1.0 7.0 0.00 0.00 0.00 62 1008.8
20260901131043 61 242 3.0 7.0 0.00 0.00 0.00 61 1008.7
20260901130543 62 235 0.0 5.0 0.00 0.00 0.00 60 1008.6
20260901130041 62 320 0.0 4.0 0.00 0.00 0.00 60 1008.6
20260901125544 62 233 0.0 11.0 0.00 0.00 0.00 61 1008.5
20260901125041 62 279 3.0 11.0 0.00 0.00 0.00 61 1008.5
20260901124541 62 227 1.0 7.0 0.00 0.00 0.00 60 1008.4
20260901124040 61 246 1.0 3.0 0.00 0.00 0.00 61 1008.4
20260901123540 61 233 0.0 7.0 0.00 0.00 0.00 61 1008.3
20260901123044 61 247 1.0 7.0 0.00 0.00 0.00 62 1008.4
20260901122540 61 191 0.0 9.0 0.00 0.00 0.00 61 1008.3
20260901122039 61 191 0.0 9.0 0.00 0.00 0.00 62 1008.3
20260901121543 60 256 0.0 3.0 0.00 0.00 0.00 63 1008.4
20260901121040 61 39 0.0 3.0 0.00 0.00 0.00 63 1008.4
20260901120540 60 41 0.0 3.0 0.00 0.00 0.00 63 1008.4
20260901120044 61 270 0.0 3.0 0.00 0.00 0.00 62 1008.5
20260901115538 62 270 0.0 8.0 0.00 0.00 0.00 60 1008.4
20260901115039 63 239 3.0 8.0 0.00 0.00 0.00 60 1008.3
20260901114542 62 252 1.0 8.0 0.00 0.00 0.00 63 1008.3
20260901114038 61 237 2.0 11.0 0.00 0.00 0.00 64 1008.2
20260901113539 61 273 2.0 11.0 0.00 0.00 0.00 63 1008.3
20260901113037 61 331 4.0 13.0 0.00 0.00 0.00 63 1008.2
20260901112536 60 215 2.0 13.0 0.00 0.00 0.00 61 1008.3
20260901112038 61 327 1.0 14.0 0.00 0.00 0.00 60 1008.3
20260901111538 61 335 3.0 14.0 0.00 0.00 0.00 62 1008.2
20260901111036 61 260 4.0 12.0 0.00 0.00 0.00 60 1008.2
20260901110535 62 312 1.0 11.0 0.00 0.00 0.00 58 1008.2
20260901110036 62 191 1.0 12.0 0.00 0.00 0.00 56 1008.2
20260901105536 62 239 4.0 12.0 0.00 0.00 0.00 61 1008.2
20260901105038 62 191 3.0 16.0 0.00 0.00 0.00 60 1008.2
20260901104534 63 191 4.0 16.0 0.00 0.00 0.00 59 1008.2
20260901104035 62 262 4.0 9.0 0.00 0.00 0.00 61 1008.2
20260901103533 62 109 2.0 16.0 0.00 0.00 0.00 59 1008.2
20260901103033 61 262 2.0 16.0 0.00 0.00 0.00 61 1008.1
20260901102534 61 39 1.0 17.0 0.00 0.00 0.00 54 1008.2
20260901102034 62 359 2.0 17.0 0.00 0.00 0.00 57 1008.2
20260901101533 62 352 3.0 12.0 0.00 0.00 0.00 53 1008.1
20260901101033 62 349 1.0 14.0 0.00 0.00 0.00 55 1008.2
20260901100531 62 344 3.0 14.0 0.00 0.00 0.00 57 1008.1
20260901100029 60 248 0.0 10.0 0.00 0.00 0.00 53 1008.2
20260901095529 60 2 0.0 7.0 0.00 0.00 0.00 51 1008.1
20260901095029 60 191 2.0 9.0 0.00 0.00 0.00 58 1008.0
20260901094529 60 355 1.0 10.0 0.00 0.00 0.00 53 1008.0
20260901094029 60 341 1.0 10.0 0.00 0.00 0.00 52 1008.1
20260901093532 60 359 4.0 8.0 0.00 0.00 0.00 50 1008.1
20260901093030 59 313 3.0 8.0 0.00 0.00 0.00 50 1008.0
20260901092528 60 16 1.0 12.0 0.00 0.00 0.00 49 1008.0
20260901092028 60 52 3.0 13.0 0.00 0.00 0.00 49 1008.0
20260901091526 59 355 4.0 13.0 0.00 0.00 0.00 53 1008.0
20260901091025 58 6 0.0 4.0 0.00 0.00 0.00 51 1007.9
20260901090525 59 26 1.0 10.0 0.00 0.00 0.00 50 1007.8
20260901090025 60 49 4.0 10.0 0.00 0.00 0.00 49 1007.8
20260901085525 61 33 0.0 7.0 0.00 0.00 0.00 47 1007.8
20260901085024 61 11 4.0 7.0 0.00 0.00 0.00 48 1008.0
20260901084524 60 348 1.0 6.0 0.00 0.00 0.00 49 1007.9
20260901084024 60 28 0.0 9.0 0.00 0.00 0.00 48 1008.0
20260901083524 60 347 3.0 9.0 0.00 0.00 0.00 49 1008.0
20260901083025 61 56 1.0 8.0 0.00 0.00 0.00 46 1008.1
20260901082523 61 23 3.0 8.0 0.00 0.00 0.00 46 1008.2
20260901082022 61 6 1.0 4.0 0.00 0.00 0.00 45 1008.2
20260901081522 61 6 1.0 7.0 0.00 0.00 0.00 45 1008.2
20260901081022 61 80 2.0 7.0 0.00 0.00 0.00 47 1008.2
20260901080522 61 344 1.0 7.0 0.00 0.00 0.00 46 1008.2
20260901080022 61 345 1.0 6.0 0.00 0.00 0.00 45 1008.2
20260901075522 62 68 2.0 7.0 0.00 0.00 0.00 44 1008.1
20260901075020 61 23 1.0 10.0 0.00 0.00 0.00 46 1008.0
20260901074518 60 4 4.0 10.0 0.00 0.00 0.00 47 1008.0
20260901074018 59 50 1.0 5.0 0.00 0.00 0.00 48 1008.0
20260901073517 59 4 1.0 4.0 0.00 0.00 0.00 49 1007.9
20260901073016 59 6 1.0 2.0 0.00 0.00 0.00 50 1007.9
20260901072517 59 6 1.0 2.0 0.00 0.00 0.00 50 1007.8
20260901072015 59 6 0.0 2.0 0.00 0.00 0.00 50 1007.8
20260901071514 59 6 0.0 2.0 0.00 0.00 0.00 50 1007.9
20260901071013 59 6 0.0 4.0 0.00 0.00 0.00 49 1007.8
20260901070514 59 12 0.0 3.0 0.00 0.00 0.00 50 1007.7
20260901070021 60 12 0.0 4.0 0.00 0.00 0.00 49 1007.7
20260901065513 60 12 2.0 4.0 0.00 0.00 0.00 48 1007.7
20260901065015 60 44 0.0 1.0 0.00 0.00 0.00 48 1007.7
20260901064512 60 44 0.0 1.0 0.00 0.00 0.00 47 1007.7
20260901064013 61 44 0.0 1.0 0.00 0.00 0.00 46 1007.8
20260901063511 61 44 0.0 2.0 0.00 0.00 0.00 46 1007.7
20260901063012 61 44 0.0 2.0 0.00 0.00 0.00 45 1007.7
20260901062511 61 44 0.0 2.0 0.00 0.00 0.00 44 1007.8
20260901062013 62 44 0.0 2.0 0.00 0.00 0.00 44 1007.8
20260901061511 62 44 1.0 2.0 0.00 0.00 0.00 44 1007.9
20260901061011 61 44 0.0 2.0 0.00 0.00 0.00 44 1007.8
20260901060511 61 44 0.0 2.0 0.00 0.00 0.00 45 1007.8
20260901060011 61 44 0.0 2.0 0.00 0.00 0.00 44 1007.8
20260901055510 61 44 1.0 2.0 0.00 0.00 0.00 44 1007.8
20260901055010 62 44 0.0 3.0 0.00 0.00 0.00 43 1007.8
20260901054510 62 44 1.0 3.0 0.00 0.00 0.00 43 1007.8
20260901054010 63 50 0.0 2.0 0.00 0.00 0.00 42 1007.7
20260901053511 63 50 1.0 2.0 0.00 0.00 0.00 41 1007.8
20260901053009 63 50 1.0 2.0 0.00 0.00 0.00 41 1007.7
20260901052512 64 50 1.0 2.0 0.00 0.00 0.00 40 1007.7
20260901052009 64 50 1.0 2.0 0.00 0.00 0.00 39 1007.7
20260901051509 64 50 1.0 2.0 0.00 0.00 0.00 39 1007.6
20260901051009 65 50 1.0 2.0 0.00 0.00 0.00 38 1007.6
20260901050509 65 50 0.0 2.0 0.00 0.00 0.00 38 1007.6
20260901050009 65 50 0.0 2.0 0.00 0.00 0.00 38 1007.6
20260901045508 65 50 1.0 2.0 0.00 0.00 0.00 38 1007.7
20260901045011 65 50 1.0 2.0 0.00 0.00 0.00 37 1007.7
20260901044509 65 50 1.0 2.0 0.00 0.00 0.00 37 1007.7
20260901044008 66 50 1.0 2.0 0.00 0.00 0.00 37 1007.7
20260901043508 66 50 1.0 3.0 0.00 0.00 0.00 36 1007.6
20260901043007 66 50 1.0 3.0 0.00 0.00 0.00 36 1007.5
20260901042507 66 50 1.0 4.0 0.00 0.00 0.00 36 1007.4
20260901042007 66 57 1.0 4.0 0.00 0.00 0.00 35 1007.3
20260901041507 66 57 1.0 2.0 0.00 0.00 0.00 35 1007.3
20260901041007 66 57 1.0 2.0 0.00 0.00 0.00 34 1007.2
20260901040507 67 57 1.0 2.0 0.00 0.00 0.00 34 1007.2
20260901040010 67 57 1.0 2.0 0.00 0.00 0.00 34 1007.1
20260901035509 67 57 1.0 2.0 0.00 0.00 0.00 34 1007.0
20260901035007 67 57 1.0 3.0 0.00 0.00 0.00 34 1007.0
20260901034506 68 57 1.0 4.0 0.00 0.00 0.00 34 1006.9
20260901034006 68 60 1.0 4.0 0.00 0.00 0.00 33 1006.9
20260901033506 68 319 0.0 2.0 0.00 0.00 0.00 33 1006.8
20260901033007 68 319 0.0 2.0 0.00 0.00 0.00 33 1006.7
20260901032507 68 319 0.0 1.0 0.00 0.00 0.00 34 1006.7
20260901032007 68 319 0.0 2.0 0.00 0.00 0.00 33 1006.7
20260901031506 69 319 0.0 2.0 0.00 0.00 0.00 33 1006.6
20260901031005 69 319 0.0 2.0 0.00 0.00 0.00 33 1006.5
20260901030506 69 319 0.0 2.0 0.00 0.00 0.00 32 1006.6
20260901030006 69 319 0.0 3.0 0.00 0.00 0.00 32 1006.5
20260901025509 70 319 1.0 3.0 0.00 0.00 0.00 30 1006.5
20260901025006 70 314 0.0 2.0 0.00 0.00 0.00 32 1006.3
20260901024505 70 314 0.0 2.0 0.00 0.00 0.00 32 1006.3
20260901024005 71 314 0.0 4.0 0.00 0.00 0.00 32 1006.2
20260901023510 71 314 1.0 4.0 0.00 0.00 0.00 31 1006.2
20260901023023 71 299 0.0 1.0 0.00 0.00 0.00 30 1006.1
20260901022504 72 299 0.0 2.0 0.00 0.00 0.00 31 1006.0
20260901022004 73 299 1.0 2.0 0.00 0.00 0.00 29 1006.0
20260901021513 73 200 0.0 1.0 0.00 0.00 0.00 30 1006.0
20260901021003 74 200 0.0 1.0 0.00 0.00 0.00 29 1006.0
20260901020504 74 200 0.0 1.0 0.00 0.00 0.00 28 1006.0
20260901020004 75 200 0.0 1.0 0.00 0.00 0.00 27 1005.9
20260901015504 76 200 0.0 1.0 0.00 0.00 0.00 25 1006.0
20260901015003 76 200 0.0 0.0 0.00 0.00 0.00 23 1006.0
20260901014502 77 200 0.0 1.0 0.00 0.00 0.00 22 1006.1
20260901014004 78 200 0.0 1.0 0.00 0.00 0.00 21 1006.0
20260901013504 78 196 0.0 0.0 0.00 0.00 0.00 23 1006.1
20260901013002 79 196 0.0 1.0 0.00 0.00 0.00 22 1006.1
20260901012501 80 196 0.0 3.0 0.00 0.00 0.00 24 1006.2
20260901012003 81 196 1.0 3.0 0.00 0.00 0.00 18 1006.2
20260901011500 81 177 0.0 2.0 0.00 0.00 0.00 18 1006.2
20260901011100 82 177 0.0 2.0 0.00 0.00 0.00 20 1006.2
20260901010600 83 177 0.0 3.0 0.00 0.00 0.00 15 1006.2
20260901010105 83 177 1.0 4.0 0.00 0.00 0.00 14 1006.2
20260901005600 84 177 0.0 4.0 0.00 0.00 0.00 15 1006.3
20260901005059 84 177 1.0 3.0 0.00 0.00 0.00 15 1006.3
20260901004558 84 177 1.0 4.0 0.00 0.00 0.00 14 1006.4
20260901004057 85 177 1.0 4.0 0.00 0.00 0.00 13 1006.4
20260901003557 86 175 2.0 5.0 0.00 0.00 0.00 12 1006.5
20260901003057 87 182 3.0 5.0 0.00 0.00 0.00 12 1006.6
20260901002556 88 176 2.0 6.0 0.00 0.00 0.00 12 1006.5
20260901002059 90 186 5.0 6.0 0.00 0.00 0.00 10 1006.6
20260901001555 90 191 4.0 6.0 0.00 0.00 0.00 10 1006.7
20260901001055 89 204 3.0 8.0 0.00 0.00 0.00 12 1006.7
20260901000553 89 165 4.0 7.0 0.00 0.00 0.00 9 1006.7
20260901000059 91 210 3.0 7.0 0.00 0.00 0.00 10 1006.8
20260831235552 90 191 3.0 6.0 0.00 0.00 0.00 9 1006.9
20260831235052 89 163 4.0 7.0 0.00 0.00 0.00 9 1007.0
20260831234551 90 170 2.0 7.0 0.00 0.00 0.00 9 1007.0
20260831234053 91 177 5.0 8.0 0.00 0.00 0.00 10 1007.1
20260831233549 93 171 5.0 8.0 0.00 0.00 0.00 9 1007.1
20260831233049 93 207 5.0 8.0 0.00 0.00 0.00 11 1007.1
20260831232551 93 204 3.0 8.0 0.00 0.00 0.00 10 1007.2
20260831232048 91 159 5.0 8.0 0.00 0.00 0.00 11 1007.3
20260831231549 92 186 5.0 10.0 0.00 0.00 0.00 10 1007.3
20260831231047 90 223 5.0 10.0 0.00 0.00 0.00 10 1007.5
20260831230546 92 161 5.0 10.0 0.00 0.00 0.00 10 1007.5
20260831230046 93 200 6.0 10.0 0.00 0.00 0.00 10 1007.6
20260831225544 94 162 5.0 8.0 0.00 0.00 0.00 9 1007.7
20260831225044 92 181 5.0 9.0 0.00 0.00 0.00 12 1007.8
20260831224542 93 158 4.0 9.0 0.00 0.00 0.00 11 1008.0
20260831224042 92 177 5.0 9.0 0.00 0.00 0.00 10 1008.0
20260831223544 92 156 4.0 8.0 0.00 0.00 0.00 9 1008.1
20260831223040 95 186 5.0 11.0 0.00 0.00 0.00 10 1008.2
20260831222540 93 171 5.0 11.0 0.00 0.00 0.00 12 1008.2
20260831222039 92 203 5.0 10.0 0.00 0.00 0.00 10 1008.3
20260831221539 91 186 5.0 10.0 0.00 0.00 0.00 10 1008.4
20260831221038 93 172 7.0 10.0 0.00 0.00 0.00 9 1008.4
20260831220538 93 196 5.0 9.0 0.00 0.00 0.00 11 1008.4
20260831220037 93 186 6.0 10.0 0.00 0.00 0.00 12 1008.5
20260831215536 95 186 6.0 10.0 0.00 0.00 0.00 10 1008.6
20260831215034 94 178 6.0 10.0 0.00 0.00 0.00 11 1008.7
20260831214534 94 191 6.0 11.0 0.00 0.00 0.00 11 1008.9
20260831214035 95 196 8.0 11.0 0.00 0.00 0.00 10 1009.0
20260831213532 95 181 7.0 10.0 0.00 0.00 0.00 11 1009.0
20260831213033 93 191 7.0 12.0 0.00 0.00 0.00 11 1009.1
20260831212530 94 196 9.0 12.0 0.00 0.00 0.00 11 1009.2
20260831212029 94 173 10.0 12.0 0.00 0.00 0.00 12 1009.3
20260831211532 94 180 8.0 11.0 0.00 0.00 0.00 12 1009.4
20260831211027 93 206 8.0 12.0 0.00 0.00 0.00 14 1009.4
20260831210525 93 186 9.0 12.0 0.00 0.00 0.00 13 1009.4
20260831210024 93 191 9.0 12.0 0.00 0.00 0.00 15 1009.6
20260831205524 93 180 9.0 12.0 0.00 0.00 0.00 14 1009.7
20260831205023 92 186 9.0 12.0 0.00 0.00 0.00 15 1009.8
20260831204523 92 178 9.0 13.0 0.00 0.00 0.00 15 1009.8
20260831204024 92 179 9.0 13.0 0.00 0.00 0.00 15 1009.8
20260831203522 93 181 9.0 12.0 0.00 0.00 0.00 15 1009.9
20260831203027 91 202 8.0 12.0 0.00 0.00 0.00 16 1010.1
20260831202519 92 186 9.0 12.0 0.00 0.00 0.00 15 1010.2
20260831202018 91 191 7.0 12.0 0.00 0.00 0.00 17 1010.4
20260831201518 91 209 9.0 12.0 0.00 0.00 0.00 17 1010.6
20260831201017 90 170 8.0 13.0 0.00 0.00 0.00 16 1010.7
20260831200516 90 186 8.0 14.0 0.00 0.00 0.00 18 1010.8
20260831200021 89 178 9.0 13.0 0.00 0.00 0.00 18 1010.8
20260831195513 89 176 10.0 13.0 0.00 0.00 0.00 18 1011.0
20260831195011 87 175 9.0 13.0 0.00 0.00 0.00 18 1011.1
20260831194511 87 182 9.0 13.0 0.00 0.00 0.00 18 1011.2
20260831194010 87 161 10.0 13.0 0.00 0.00 0.00 18 1011.3
20260831193509 87 186 9.0 13.0 0.00 0.00 0.00 19 1011.4
20260831193009 86 170 10.0 14.0 0.00 0.00 0.00 20 1011.4
20260831192506 85 196 8.0 14.0 0.00 0.00 0.00 20 1011.5
20260831192009 85 179 6.0 12.0 0.00 0.00 0.00 22 1011.7
20260831191503 82 179 6.0 11.0 0.00 0.00 0.00 24 1011.9
20260831191002 83 219 5.0 9.0 0.00 0.00 0.00 24 1012.0
20260831190502 81 191 5.0 9.0 0.00 0.00 0.00 25 1012.2
20260831190101 80 178 4.0 7.0 0.00 0.00 0.00 23 1012.3
20260831185603 76 248 1.0 6.0 0.00 0.00 0.00 32 1012.3
20260831185057 77 182 3.0 6.0 0.00 0.00 0.00 28 1012.5
20260831184600 80 186 3.0 6.0 0.00 0.00 0.00 27 1012.6
20260831184054 79 150 2.0 6.0 0.00 0.00 0.00 27 1012.7
20260831183553 78 164 3.0 6.0 0.00 0.00 0.00 28 1012.8
20260831183052 76 137 1.0 7.0 0.00 0.00 0.00 31 1012.8
20260831182555 77 135 2.0 8.0 0.00 0.00 0.00 31 1013.0
20260831182053 79 166 5.0 8.0 0.00 0.00 0.00 31 1013.1
20260831181548 77 166 3.0 7.0 0.00 0.00 0.00 34 1013.1
20260831181048 76 191 3.0 6.0 0.00 0.00 0.00 35 1013.1
20260831180545 77 196 3.0 9.0 0.00 0.00 0.00 38 1013.3
20260831180045 75 175 4.0 9.0 0.00 0.00 0.00 40 1013.3
20260831175544 73 181 3.0 6.0 0.00 0.00 0.00 42 1013.4
20260831175042 71 191 2.0 6.0 0.00 0.00 0.00 45 1013.4
20260831174541 71 167 4.0 6.0 0.00 0.00 0.00 43 1013.5
20260831174039 73 164 3.0 6.0 0.00 0.00 0.00 39 1013.6
20260831173541 73 181 4.0 7.0 0.00 0.00 0.00 40 1013.5
20260831173137 73 181 4.0 7.0 0.00 0.00 0.00 39 1013.6
20260831172534 73 186 4.0 8.0 0.00 0.00 0.00 41 1013.6
20260831172033 72 200 5.0 7.0 0.00 0.00 0.00 43 1013.7
20260831171531 71 177 4.0 6.0 0.00 0.00 0.00 45 1013.8
20260831171030 69 196 3.0 5.0 0.00 0.00 0.00 47 1013.8